TimeCDT,TemperatureF,Dew PointF,Humidity,Sea Level PressureIn,VisibilityMPH,Wind Direction,Wind SpeedMPH,Gust SpeedMPH,PrecipitationIn,Events,Conditions,WindDirDegrees,DateUTC
12:15 AM,30.2,15.8,55,29.97,10.0,West,12.7,17.3,N/A,,Clear,280,2013-03-19 05:15:00
12:35 AM,30.2,15.8,55,29.96,10.0,WNW,11.5,16.1,N/A,,Clear,300,2013-03-19 05:35:00
12:55 AM,30.2,15.8,55,29.97,10.0,WNW,12.7,-,N/A,,Clear,290,2013-03-19 05:55:00
1:15 AM,28.4,15.8,59,29.98,10.0,West,12.7,19.6,N/A,,Clear,280,2013-03-19 06:15:00
1:35 AM,28.4,15.8,59,29.99,10.0,West,12.7,18.4,N/A,,Clear,280,2013-03-19 06:35:00
1:55 AM,28.4,15.8,59,29.99,10.0,WNW,16.1,23.0,N/A,,Clear,290,2013-03-19 06:55:00
2:15 AM,28.4,14.0,55,30.00,10.0,WNW,15.0,19.6,N/A,,Clear,300,2013-03-19 07:15:00
2:35 AM,28.4,15.8,59,30.01,10.0,WNW,15.0,20.7,N/A,,Clear,290,2013-03-19 07:35:00
2:55 AM,28.4,12.2,51,29.99,10.0,WNW,15.0,28.8,N/A,,Clear,300,2013-03-19 07:55:00
3:15 AM,28.4,12.2,51,30.00,10.0,WNW,15.0,23.0,N/A,,Clear,300,2013-03-19 08:15:00
3:35 AM,26.6,12.2,55,30.00,10.0,NW,9.2,16.1,N/A,,Clear,310,2013-03-19 08:35:00
3:55 AM,26.6,14.0,59,30.02,10.0,WNW,10.4,16.1,N/A,,Clear,290,2013-03-19 08:55:00
4:15 AM,26.6,14.0,59,30.01,10.0,WNW,11.5,-,N/A,,Clear,300,2013-03-19 09:15:00
4:35 AM,26.6,14.0,59,30.03,10.0,WNW,11.5,-,N/A,,Clear,290,2013-03-19 09:35:00
4:55 AM,24.8,12.2,59,30.03,10.0,WNW,10.4,-,N/A,,Clear,290,2013-03-19 09:55:00
5:15 AM,26.6,12.2,55,30.04,10.0,WNW,13.8,-,N/A,,Clear,290,2013-03-19 10:15:00
5:35 AM,24.8,12.2,59,30.04,10.0,WNW,13.8,18.4,N/A,,Clear,300,2013-03-19 10:35:00
5:55 AM,24.8,10.4,54,30.05,10.0,WNW,11.5,21.9,N/A,,Clear,300,2013-03-19 10:55:00
6:15 AM,24.8,10.4,54,30.05,10.0,WNW,11.5,18.4,N/A,,Clear,300,2013-03-19 11:15:00
6:35 AM,24.8,10.4,54,30.06,10.0,WNW,15.0,18.4,N/A,,Clear,300,2013-03-19 11:35:00
6:55 AM,24.8,8.6,50,30.07,10.0,WNW,12.7,18.4,N/A,,Clear,290,2013-03-19 11:55:00
7:15 AM,24.8,8.6,50,30.08,10.0,WNW,10.4,-,N/A,,Clear,300,2013-03-19 12:15:00
7:35 AM,24.8,8.6,50,30.09,10.0,WNW,8.1,-,N/A,,Clear,300,2013-03-19 12:35:00
7:55 AM,24.8,10.4,54,30.10,10.0,WNW,10.4,-,N/A,,Clear,290,2013-03-19 12:55:00
8:15 AM,26.6,10.4,51,30.10,10.0,WNW,12.7,17.3,N/A,,Clear,300,2013-03-19 13:15:00
8:35 AM,26.6,10.4,51,30.12,10.0,WNW,15.0,-,N/A,,Clear,290,2013-03-19 13:35:00
8:55 AM,26.6,8.6,47,30.13,10.0,WNW,15.0,20.7,N/A,,Clear,300,2013-03-19 13:55:00
9:15 AM,28.4,6.8,40,30.13,10.0,NW,13.8,20.7,N/A,,Clear,310,2013-03-19 14:15:00
9:35 AM,28.4,8.6,43,30.14,10.0,WNW,12.7,-,N/A,,Clear,300,2013-03-19 14:35:00
9:55 AM,30.2,6.8,37,30.15,10.0,NW,17.3,-,N/A,,Clear,310,2013-03-19 14:55:00
10:15 AM,32.0,5.0,32,30.16,10.0,WNW,11.5,-,N/A,,Clear,300,2013-03-19 15:15:00
10:35 AM,32.0,1.4,27,30.17,10.0,WNW,16.1,21.9,N/A,,Clear,300,2013-03-19 15:35:00
10:55 AM,33.8,-0.4,23,30.17,10.0,NW,11.5,23.0,N/A,,Clear,310,2013-03-19 15:55:00
11:15 AM,33.8,1.4,25,30.18,10.0,West,11.5,19.6,N/A,,Clear,280,2013-03-19 16:15:00
11:35 AM,35.6,1.4,24,30.18,10.0,West,13.8,21.9,N/A,,Clear,260,2013-03-19 16:35:00
11:55 AM,37.4,-0.4,20,30.18,10.0,NW,12.7,18.4,N/A,,Clear,310,2013-03-19 16:55:00
12:15 PM,37.4,-2.2,19,30.19,10.0,WNW,13.8,18.4,N/A,,Clear,300,2013-03-19 17:15:00
12:35 PM,37.4,-0.4,20,30.19,10.0,West,10.4,-,N/A,,Clear,280,2013-03-19 17:35:00
12:55 PM,39.2,-5.8,15,30.19,10.0,West,9.2,18.4,N/A,,Clear,270,2013-03-19 17:55:00
1:15 PM,39.2,-11.2,11,30.18,10.0,NW,9.2,-,N/A,,Clear,320,2013-03-19 18:15:00
1:35 PM,41.0,-4.0,15,30.18,10.0,West,10.4,-,N/A,,Clear,280,2013-03-19 18:35:00
1:55 PM,42.8,-2.2,15,30.18,10.0,WSW,11.5,16.1,N/A,,Clear,250,2013-03-19 18:55:00
2:15 PM,42.8,-2.2,15,30.18,10.0,WNW,11.5,-,N/A,,Clear,290,2013-03-19 19:15:00
2:35 PM,42.8,-2.2,15,30.16,10.0,West,11.5,17.3,N/A,,Clear,260,2013-03-19 19:35:00
2:55 PM,42.8,-5.8,13,30.17,10.0,West,12.7,18.4,N/A,,Clear,270,2013-03-19 19:55:00
3:15 PM,42.8,-4.0,14,30.17,10.0,West,9.2,-,N/A,,Clear,260,2013-03-19 20:15:00
3:35 PM,42.8,-4.0,14,30.17,10.0,West,15.0,18.4,N/A,,Clear,270,2013-03-19 20:35:00
3:55 PM,44.6,-2.2,14,30.17,10.0,West,11.5,-,N/A,,Clear,270,2013-03-19 20:55:00
4:15 PM,44.6,-2.2,14,30.16,10.0,West,8.1,16.1,N/A,,Clear,270,2013-03-19 21:15:00
4:35 PM,44.6,-4.0,13,30.16,10.0,West,10.4,-,N/A,,Clear,260,2013-03-19 21:35:00
4:55 PM,44.6,-5.8,12,30.16,10.0,West,12.7,-,N/A,,Clear,260,2013-03-19 21:55:00
5:15 PM,44.6,-7.6,11,30.16,10.0,West,12.7,16.1,N/A,,Clear,260,2013-03-19 22:15:00
5:35 PM,44.6,-4.0,13,30.16,10.0,West,12.7,16.1,N/A,,Clear,260,2013-03-19 22:35:00
5:55 PM,44.6,-5.8,12,30.16,10.0,WNW,9.2,-,N/A,,Clear,300,2013-03-19 22:55:00
6:15 PM,44.6,-5.8,12,30.16,10.0,West,9.2,-,N/A,,Clear,270,2013-03-19 23:15:00
6:35 PM,42.8,-4.0,14,30.16,10.0,West,9.2,-,N/A,,Clear,270,2013-03-19 23:35:00
7:15 PM,39.2,3.2,22,30.16,10.0,West,6.9,-,N/A,,Clear,270,2013-03-20 00:15:00
7:35 PM,39.2,5.0,24,30.16,10.0,West,4.6,-,N/A,,Clear,270,2013-03-20 00:35:00
7:55 PM,39.2,1.4,21,30.16,10.0,West,3.5,-,N/A,,Clear,280,2013-03-20 00:55:00
8:15 PM,39.2,3.2,22,30.16,10.0,Calm,Calm,-,N/A,,Mostly Cloudy,0,2013-03-20 01:15:00
8:35 PM,37.4,1.4,22,30.17,10.0,WNW,4.6,-,N/A,,Mostly Cloudy,300,2013-03-20 01:35:00
8:55 PM,39.2,3.2,22,30.16,10.0,WNW,3.5,-,N/A,,Scattered Clouds,290,2013-03-20 01:55:00
9:15 PM,35.6,8.6,33,30.16,10.0,Calm,Calm,-,N/A,,Clear,0,2013-03-20 02:15:00
9:35 PM,32.0,12.2,44,30.17,10.0,SW,5.8,-,N/A,,Clear,230,2013-03-20 02:35:00
9:55 PM,33.8,10.4,38,30.17,10.0,North,4.6,-,N/A,,Clear,360,2013-03-20 02:55:00
10:15 PM,35.6,8.6,33,30.16,10.0,NNW,3.5,-,N/A,,Clear,340,2013-03-20 03:15:00
10:35 PM,37.4,8.6,30,30.16,10.0,NNW,4.6,-,N/A,,Clear,340,2013-03-20 03:35:00
10:55 PM,33.8,12.2,41,30.16,10.0,NNW,4.6,-,N/A,,Clear,340,2013-03-20 03:55:00
11:15 PM,33.8,14.0,44,30.18,10.0,NNW,6.9,-,N/A,,Scattered Clouds,340,2013-03-20 04:15:00
11:35 PM,33.8,14.0,44,30.19,10.0,NNW,8.1,-,N/A,,Mostly Cloudy,340,2013-03-20 04:35:00
11:55 PM,33.8,14.0,44,30.19,10.0,NNW,9.2,-,N/A,,Overcast,340,2013-03-20 04:55:00